User: anonymous   Login
Location: Unspecified
(0.0000°N, 0.0000°E)
Time: 20:01:15
(UTC+00:00)
Language:

NOAA 18 - Orbit

View from above orbital plane
View from above orbital plane
View from above satellite
View from above satellite

Ground track
Ground track

The orbit data is extracted from the following two-line orbital elements,

1 28654U 05018A   18114.83246245  .00166908  00000-0  86641-1 0  9994
2 28654  99.1506 149.1869 0013541 277.1832  82.7800 14.13477167666249
Epoch (UTC): 24 April 2018 19:58:44
Eccentricity: 0.0013541
inclination: 99.1506°
perigee height: 838 km
apogee height: 857 km
right ascension of ascending node: 149.1869°
argument of perigee: 277.1832°
revolutions per day: 14.13477167
mean anomaly at epoch: 82.7800°
orbit number at epoch: 66624

The dashed part of the orbit path shows where the satellite is in the earth's shadow,  

DLR